sat.trackr.live / text

‹ back to catalog

STARLINK-31529

NORAD 59000 · 2024-036C

PAYLOAD ACTIVE UNKNOWN

§ Identity

Operator
Country
US
Launch date
2024-02-23
Launch site
AFWTR
Launch vehicle
Mass (kg)
RCS (m²)

Purposes: comms

External: N2YO · Heavens-Above · Gunter

§ Orbital elements

Epoch: 2026-05-25T02:29:27.524256Z

Period
94.10 min
Inclination
53.1585°
Eccentricity
0.0001110
Mean motion
15.30218428 rev/d
Perigee alt
474.4 km
Apogee alt
475.9 km
Semi-major
6,853.3 km
B*
4.5809e-4
RAAN
80.9956°
Arg perigee
94.0753°
Mean anomaly
266.0375°
Rev number
12,697

§ Raw data

STARLINK-315291 59000U 24036C   26145.10379079  .00013240  00000+0  45809-3 0  99912 59000  53.1585  80.9956 0001110  94.0753 266.0375 15.30218428126979

JSON: /api/v1/satellites/59000 · /tle

For live sub-satellite position, see the globe view (requires WebGL).

§ Visibility from observer

Set your observer location to see the next 7 days of passes ≥ 10°. The values pass through the URL so the page stays shareable.

No JS? Fill the form by hand. The geolocation button needs JavaScript.